Location: Bakov nad Jizerou
(50.4784°N, 14.9394°E)
Time: 21:43:40
(UTC+00:00)

DNEPR-1 R/B - Pass Details

Date: 16 June 2021
Orbit: 588 x 1334 km, 64.6° (Epoch: 23 July)

Event Time Altitude Azimuth Distance (km) Brightness Sun altitude
Rises 20:56:26 0° 318° (NW) 2,859 8.8 -11.2°
Reaches altitude 10° 20:58:41 10° 319° (NW) 1,929 7.5 -11.3°
Maximum altitude 21:02:56 89° 51° (NE) 600 3.5 -11.7°
Enters shadow 21:06:17 17° 139° (SE) 1,569 5.0 -11.9°
